This demonstration page uses our WeatherBlox Daily Observations layout. Learn more.

Left ArrowRight Arrow

Hourly Observations for July 25, 2016

Temp ( °F °C ) Dew Point ( °F °C ) Humidity (%) Winds ( mph kmh ) Pressure ( in mb ) Visibility ( mi km ) Precip ( " mm )
12:59 am 00:59 Mostly Cloudy 84 28.9 75 23.9 74 74 SSW 9 15 30.00 1016 9 14 0.00 0.00
1:59 am 01:59 Mostly Cloudy 83 28.3 76 24.4 79 79 SSW 7 11 29.99 1016 8 13 0.00 0.00
2:59 am 02:59 Mostly Cloudy 82 27.8 76 24.4 82 82 SSW 8 13 30.00 1016 8 13 0.00 0.00
3:59 am 03:59 Mostly Cloudy 81 27.2 76 24.4 85 85 SW 8 13 30.01 1016 8 13 0.00 0.00
4:59 am 04:59 Partly Cloudy 80 26.7 76 24.4 87 87 SW 8 13 30.01 1016 7 11 0.00 0.00
5:59 am 05:59 Partly Cloudy 79 26.1 76 24.4 90 90 SW 5 7 30.02 1017 7 11 0.00 0.00
6:33 am 06:33 Partly Cloudy with Mist and Fog 79 26.1 75 23.9 88 88 SSW 8 13 30.03 1017 6 10 0.00 0.00
6:59 am 06:59 Partly Cloudy with Mist and Fog 79 26.1 76 24.4 90 90 SSW 6 9 30.03 1017 6 10 0.00 0.00
7:59 am 07:59 Hazy 82 27.8 76 24.4 82 82 SW 9 15 30.04 1017 6 10 0.00 0.00
8:59 am 08:59 Partly Cloudy 85 29.4 76 24.4 75 75 SW 8 13 30.02 1017 7 11 0.00 0.00
9:59 am 09:59 Partly Cloudy 89 31.7 77 25 68 68 SSW 7 11 30.01 1016 8 13 0.00 0.00
10:59 am 10:59 Mostly Cloudy 92 33.3 76 24.4 60 60 VRB 7 11 30.03 1017 8 13 0.00 0.00
11:59 am 11:59 Mostly Cloudy 94 34.4 75 23.9 54 54 SW 9 15 30.02 1017 8 13 0.00 0.00
12:59 pm 12:59 Mostly Cloudy 95 35 72 22.2 47 47 SSW 13 20 30.00 1016 9 14 0.00 0.00
1:59 pm 13:59 Mostly Cloudy 97 36.1 72 22.2 45 45 SSW 10 17 29.98 1015 7 11 0.00 0.00
2:59 pm 14:59 Mostly Cloudy 98 36.7 72 22.2 43 43 SSW 10 17 29.96 1014 9 14 0.00 0.00
3:59 pm 15:59 Mostly Cloudy 98 36.7 72 22.2 43 43 SW 12 19 29.93 1014 9 14 0.00 0.00
4:59 pm 16:59 Mostly Cloudy 97 36.1 70 21.1 42 42 SW 13 20 29.93 1013 9 14 0.00 0.00
5:59 pm 17:59 Mostly Cloudy 94 34.4 70 21.1 46 46 SW 9 15 29.91 1013 10 16 0.00 0.00
6:59 pm 18:59 Mostly Cloudy 93 33.9 71 21.7 49 49 SSW 8 13 29.93 1013 9 14 0.00 0.00
7:59 pm 19:59 Mostly Cloudy 90 32.2 72 22.2 56 56 SW 10 17 29.93 1014 9 14 0.00 0.00
8:59 pm 20:59 Cloudy 90 32.2 73 22.8 58 58 SSW 8 13 29.94 1014 10 16 0.00 0.00
9:59 pm 21:59 Cloudy 88 31.1 74 23.3 63 63 SSW 9 15 29.96 1014 9 14 0.00 0.00
10:59 pm 22:59 Mostly Cloudy 86 30 75 23.9 70 70 SSW 9 15 29.96 1015 9 14 0.00 0.00
11:59 pm 23:59 Mostly Cloudy 84 28.9 76 24.4 77 77 SSW 9 15 29.96 1015 9 14 0.00 0.00

Powered by AerisWeather